Weather History for Marietta, GA

Change the Weather History Date:

Wednesday, February 13, 2013

  Actual Average Record
Temperature  
Mean Temperature 46 °F -  
Max Temperature 52 °F 53 °F 68 °F (2009)
Min Temperature 38 °F 35 °F 22 °F (2012)
Degree Days  
Heating Degree Days 18    
Moisture  
Dew Point 43 °F    
Average Humidity 92    
Maximum Humidity 100    
Minimum Humidity 74    
Precipitation  
Precipitation 0.03 in - - ()
Sea Level Pressure  
Sea Level Pressure 29.82 in    
Wind  
Wind Speed 10 mph (ENE)    
Max Wind Speed 23 mph    
Max Gust Speed 30 mph    
Visibility 8 miles    
Events Rain    
Averages and records for this station are not official NWS values.
T = Trace of Precipitation, MM = Missing Value Source: NWS Daily Summary

Daily Weather History Graph

Daily Weather History Graph

Search for Another Location

Airport:

Trip Planner

Search our weather history database for the weather conditions in past years. The results will help you decide how hot, cold, wet, or windy it might be!

Date:

Astronomy

Feb. 13, 2013 Rise Set
Actual Time 7:24 AM EST 6:20 PM EST
Civil Twilight 6:58 AM EST 6:46 PM EST
Nautical Twilight 6:29 AM EST 7:15 PM EST
Astronomical Twilight 6:00 AM EST 7:44 PM EST
Moon 9:06 AM EST (2/13) 10:07 PM EST (2/13)
Length of Visible Light 11h 47m
Length of Day
10h 56m
Waxing Crescent, 13% of the Moon is Illuminated
Feb 13
Waxing Crescent
Feb 17
First Quarter
Feb 25
Full
Mar 4
Last Quarter
Mar 11
New

Hourly Weather History & Observations

Time (EST) Temp. Windchill Dew Point Humidity Pressure Visibility Wind Dir Wind Speed Gust Speed Precip Events Conditions
12:01 AM 44.6 °F 39.2 °F 44.6 °F 100% 29.84 in 10.0 mi East 10.4 mph - N/A   Overcast
12:06 AM 44.6 °F 39.2 °F 44.6 °F 100% 29.85 in 10.0 mi East 10.4 mph - N/A   Overcast
12:11 AM 44.6 °F 40.7 °F 44.6 °F 100% 29.85 in 10.0 mi East 6.9 mph - N/A   Overcast
12:16 AM 44.6 °F 39.2 °F 44.6 °F 100% 29.85 in 10.0 mi East 10.4 mph - N/A   Overcast
12:21 AM 44.6 °F 39.7 °F 44.6 °F 100% 29.85 in 10.0 mi East 9.2 mph - N/A   Overcast
12:26 AM 44.6 °F 39.7 °F 44.6 °F 100% 29.84 in 10.0 mi East 9.2 mph - N/A   Overcast
12:36 AM 44.6 °F 41.4 °F 44.6 °F 100% 29.85 in 10.0 mi East 5.8 mph - N/A   Overcast
12:51 AM 44.6 °F 39.2 °F 44.6 °F 100% 29.83 in 10.0 mi East 10.4 mph - N/A   Overcast
12:58 AM 45.0 °F 39.7 °F 43.9 °F 96% 29.84 in 10.0 mi East 10.4 mph - 0.00 in   Overcast
1:03 AM 44.6 °F 39.2 °F 44.6 °F 100% 29.83 in 10.0 mi East 10.4 mph - N/A   Overcast
1:13 AM 44.6 °F 40.2 °F 44.6 °F 100% 29.83 in 10.0 mi East 8.1 mph - N/A   Overcast
1:43 AM 44.6 °F 39.7 °F 44.6 °F 100% 29.82 in 10.0 mi ENE 9.2 mph - N/A   Overcast
1:53 AM 44.6 °F 40.2 °F 44.6 °F 100% 29.83 in 10.0 mi East 8.1 mph - N/A   Overcast
1:58 AM 44.8 °F 40.4 °F 44.2 °F 98% 29.84 in 10.0 mi East 8.1 mph - N/A   Overcast
2:08 AM 44.6 °F 38.8 °F 44.6 °F 100% 29.82 in 10.0 mi East 11.5 mph - N/A   Overcast
2:23 AM 44.6 °F 39.7 °F 44.6 °F 100% 29.81 in 10.0 mi ENE 9.2 mph - N/A   Overcast
2:33 AM 44.6 °F 39.2 °F 44.6 °F 100% 29.80 in 10.0 mi East 10.4 mph 16.1 mph N/A   Overcast
2:43 AM 44.6 °F 39.2 °F 44.6 °F 100% 29.81 in 9.0 mi East 10.4 mph - N/A   Overcast
2:48 AM 44.6 °F 38.8 °F 44.6 °F 100% 29.80 in 8.0 mi East 11.5 mph - N/A   Overcast
2:50 AM 44.6 °F 38.8 °F 44.6 °F 100% 29.80 in 7.0 mi East 11.5 mph - N/A Rain Light Rain
2:58 AM 44.6 °F 39.7 °F 42.8 °F 93% 29.81 in 5.0 mi East 9.2 mph - 0.00 in   Light Drizzle
3:03 AM 44.6 °F 39.7 °F 42.8 °F 93% 29.79 in 5.0 mi East 9.2 mph - N/A   Light Drizzle
3:28 AM 44.6 °F 40.2 °F 44.6 °F 100% 29.79 in 3.0 mi East 8.1 mph - N/A Rain Light Rain
3:33 AM 44.6 °F 40.7 °F 42.8 °F 93% 29.79 in 3.0 mi East 6.9 mph - N/A Rain Light Rain
3:38 AM 44.6 °F 40.2 °F 42.8 °F 93% 29.79 in 3.0 mi East 8.1 mph - N/A Rain Light Rain
3:44 AM 44.6 °F 40.2 °F 42.8 °F 93% 29.79 in 3.0 mi ENE 8.1 mph - N/A   Overcast
3:58 AM 43.9 °F 40.5 °F 43.7 °F 99% 29.79 in 4.0 mi East 5.8 mph - 0.01 in   Overcast
4:08 AM 44.6 °F 39.7 °F 42.8 °F 93% 29.78 in 5.0 mi East 9.2 mph - N/A   Overcast
4:28 AM 44.6 °F 40.2 °F 42.8 °F 93% 29.77 in 7.0 mi East 8.1 mph - N/A   Overcast
4:33 AM 44.6 °F 39.7 °F 42.8 °F 93% 29.77 in 7.0 mi East 9.2 mph - N/A   Overcast
4:58 AM 44.1 °F 40.1 °F 43.9 °F 99% 29.78 in 7.0 mi East 6.9 mph - N/A   Overcast
5:33 AM 44.6 °F 40.7 °F 44.6 °F 100% 29.76 in 8.0 mi ESE 6.9 mph - N/A   Overcast
5:38 AM 44.6 °F 38.8 °F 44.6 °F 100% 29.74 in 10.0 mi East 11.5 mph - N/A   Overcast
5:53 AM 44.6 °F 37.8 °F 44.6 °F 100% 29.73 in 7.0 mi East 15.0 mph - N/A   Overcast
5:58 AM 44.6 °F 41.4 °F 44.6 °F 100% 29.76 in 5.0 mi Variable 5.8 mph - N/A   Overcast
6:03 AM 44.6 °F 40.2 °F 44.6 °F 100% 29.76 in 5.0 mi East 8.1 mph - N/A   Overcast
6:24 AM 44.6 °F 39.7 °F 44.6 °F 100% 29.75 in 2.0 mi East 9.2 mph - N/A   Light Drizzle
6:58 AM 44.2 °F 40.3 °F 44.1 °F 99% 29.77 in 2.0 mi ESE 6.9 mph - 0.01 in   Light Drizzle
7:30 AM 44.6 °F 40.7 °F 44.6 °F 100% 29.78 in 1.5 mi ESE 6.9 mph - N/A   Light Drizzle
7:58 AM 44.2 °F - 44.1 °F 99% 29.79 in 1.5 mi East 2.3 mph - 0.00 in   Light Drizzle
8:58 AM 44.6 °F 42.2 °F 44.6 °F 100% 29.79 in 1.5 mi East 4.6 mph - 0.00 in   Light Drizzle
9:16 AM 44.6 °F - 44.6 °F 100% 29.80 in 0.8 mi SSW 2.3 mph - N/A   Light Drizzle
9:36 AM 44.6 °F - 44.6 °F 100% 29.78 in 0.5 mi NNW 1.2 mph - N/A   Light Drizzle
9:47 AM 44.6 °F 43.1 °F 44.6 °F 100% 29.78 in 1.2 mi Variable 3.5 mph - N/A   Light Drizzle
9:58 AM 45.1 °F 43.7 °F 45.0 °F 99% 29.81 in 1.2 mi SSW 3.5 mph - 0.00 in   Light Drizzle
10:01 AM 44.6 °F - 44.6 °F 100% 29.80 in 2.2 mi SW 2.3 mph - N/A   Light Drizzle
10:09 AM 46.4 °F 45.2 °F 44.6 °F 93% 29.80 in 3.0 mi SSW 3.5 mph - N/A   Light Drizzle
10:23 AM 46.4 °F 44.3 °F 46.4 °F 100% 29.80 in 4.0 mi SSW 4.6 mph - N/A   Light Drizzle
10:33 AM 46.4 °F - 46.4 °F 100% 29.79 in 4.0 mi SW 2.3 mph - N/A   Overcast
10:58 AM 46.9 °F - 46.6 °F 99% 29.82 in 5.0 mi WSW 4.6 mph - 0.01 in   Overcast
11:13 AM 48.2 °F - 48.2 °F 100% 29.80 in 6.0 mi West 5.8 mph - N/A   Overcast
11:23 AM 48.2 °F - 48.2 °F 100% 29.80 in 6.0 mi WSW 5.8 mph - N/A   Overcast
11:43 AM 48.2 °F - 48.2 °F 100% 29.81 in 10.0 mi WSW 8.1 mph - N/A   Overcast
11:58 AM 49.5 °F - 48.2 °F 95% 29.81 in 10.0 mi West 9.2 mph - N/A   Overcast
12:01 PM 50.0 °F - 48.2 °F 94% 29.79 in 10.0 mi WSW 8.1 mph - N/A   Overcast
12:41 PM 51.8 °F - 46.4 °F 82% 29.79 in 10.0 mi West 16.1 mph 24.2 mph N/A   Overcast
12:58 PM 52.7 °F - 46.2 °F 79% 29.80 in 10.0 mi WSW 15.0 mph 21.9 mph N/A   Overcast
1:58 PM 51.3 °F - 43.3 °F 74% 29.79 in 10.0 mi West 23.0 mph 29.9 mph N/A   Overcast
2:38 PM 48.2 °F - 42.8 °F 82% 29.80 in 10.0 mi WNW 13.8 mph 24.2 mph N/A   Overcast
2:41 PM 48.2 °F - 42.8 °F 82% 29.80 in 10.0 mi WNW 19.6 mph 24.2 mph N/A   Overcast
2:58 PM 47.3 °F - 42.6 °F 84% 29.81 in 10.0 mi WNW 16.1 mph - N/A   Overcast
3:11 PM 46.4 °F 39.5 °F 42.8 °F 87% 29.81 in 10.0 mi West 17.3 mph - N/A   Light Drizzle
3:18 PM 46.4 °F 39.2 °F 42.8 °F 87% 29.81 in 10.0 mi West 18.4 mph - N/A   Overcast
3:35 PM 46.4 °F 39.8 °F 42.8 °F 87% 29.82 in 10.0 mi West 16.1 mph - N/A   Light Drizzle
3:36 PM 46.4 °F 39.8 °F 42.8 °F 87% 29.82 in 10.0 mi West 16.1 mph - N/A   Light Drizzle
3:55 PM 46.4 °F 39.8 °F 42.8 °F 87% 29.81 in 10.0 mi West 16.1 mph - N/A   Overcast
3:58 PM 46.4 °F 39.8 °F 42.8 °F 87% 29.83 in 10.0 mi West 16.1 mph - 0.00 in   Overcast
4:56 PM 46.4 °F 40.1 °F 41.0 °F 81% 29.84 in 10.0 mi West 15.0 mph - N/A   Overcast
4:58 PM 46.6 °F - 40.8 °F 80% 29.85 in 10.0 mi West 15.0 mph - N/A   Overcast
5:15 PM 46.4 °F 40.1 °F 41.0 °F 81% 29.84 in 10.0 mi West 15.0 mph - N/A   Overcast
5:17 PM 46.4 °F 40.4 °F 41.0 °F 81% 29.85 in 10.0 mi West 13.8 mph - N/A   Overcast
5:31 PM 46.4 °F 39.8 °F 41.0 °F 81% 29.85 in 10.0 mi West 16.1 mph - N/A   Overcast
5:37 PM 46.4 °F 39.8 °F 41.0 °F 81% 29.85 in 10.0 mi West 16.1 mph - N/A   Overcast
5:48 PM 46.4 °F 40.7 °F 41.0 °F 81% 29.86 in 10.0 mi West 12.7 mph - N/A   Overcast
5:55 PM 46.4 °F 40.7 °F 41.0 °F 81% 29.86 in 10.0 mi West 12.7 mph 21.9 mph N/A   Overcast
5:58 PM 46.2 °F 40.5 °F 40.1 °F 79% 29.88 in 10.0 mi West 12.7 mph 21.9 mph N/A   Overcast
6:58 PM 45.0 °F 38.5 °F 38.5 °F 78% 29.91 in 10.0 mi WNW 13.8 mph 26.5 mph N/A   Overcast
7:18 PM 44.6 °F 37.2 °F 37.4 °F 76% 29.90 in 10.0 mi WNW 17.3 mph - N/A   Overcast
7:58 PM 42.8 °F 37.0 °F 35.8 °F 76% 29.94 in 10.0 mi WNW 10.4 mph - N/A   Scattered Clouds
8:58 PM 42.4 °F 36.1 °F 35.2 °F 76% 29.96 in 10.0 mi WNW 11.5 mph - N/A   Overcast
9:08 PM 42.8 °F 35.8 °F 35.6 °F 76% 29.94 in 10.0 mi WNW 13.8 mph 19.6 mph N/A   Overcast
9:33 PM 41.0 °F 33.9 °F 35.6 °F 81% 29.94 in 10.0 mi NW 12.7 mph - N/A   Overcast
9:58 PM 41.4 °F 36.2 °F 34.9 °F 78% 29.97 in 10.0 mi NW 8.1 mph - N/A   Overcast
10:08 PM 41.0 °F 35.2 °F 33.8 °F 76% 29.95 in 10.0 mi WNW 9.2 mph - N/A   Scattered Clouds
10:58 PM 38.5 °F 32.7 °F 33.4 °F 82% 29.99 in 10.0 mi West 8.1 mph - N/A   Scattered Clouds